Dewpoint
5 6 8 5 5 4 4 4 5 3 1 2 2 1 -0 -2 -1 0 0 -0 -1 -2 -3 -3 4 10 12 12 12 13 13 13 12 11 12 10 9 7 6 3 -2 -5 -6 -7
3 7 6 4 4 4 5 5 5 3 1 2 3 2 0 -2 1 1 1 1 0 -1 -2 -4 3 9 11 12 12 13 13 13 11 10 10 9 8 5 2 -0 -2 -3 -4 -5
4 3 2 5 5 4 4 5 4 4 2 1 2 3 1 0 1 1 1 2 3 1 -1 -2 4 10 12 12 12 13 13 12 10 9 8 7 5 3 2 1 -0 -1 -2 -3
3 1 1 2 3 3 5 2 3 3 3 5 1 7 2 1 3 1 1 4 6 5 5 1 7 11 11 12 12 13 12 10 10 10 9 8 6 5 3 2 1 0 -1 -1
4 3 3 4 3 2 4 2 2 1 2 3 3 5 3 2 3 2 1 4 7 7 8 8 9 10 10 11 11 11 10 9 9 9 8 7 6 5 4 3 2 2 2 2
2 2 2 2 1 0 -0 -1 0 1 2 5 3 4 4 3 3 2 1 3 5 5 7 7 8 8 9 10 10 10 9 9 8 7 6 5 5 5 4 4 4 4 4 4
5 5 3 2 3 -0 -2 2 5 5 5 6 2 4 3 2 1 1 1 2 2 -1 -2 5 6 8 8 9 9 9 8 7 6 5 4 4 5 5 5 4 4 4 4 4
8 8 4 2 4 4 -0 2 5 7 7 5 4 5 5 1 -2 -1 -0 0 1 0 -1 -2 -1 2 4 5 5 5 5 5 5 5 5 5 5 5 5 5 5 5 5 4
7 7 1 1 2 2 3 3 0 4 5 4 5 5 3 3 1 -3 -3 -2 -1 0 -1 -3 -1 -1 -1 -0 -0 -2 -3 -3 -3 -2 3 5 5 5 5 5 5 4 4 4
2 3 -1 -3 -0 0 1 -0 4 4 7 8 6 6 6 5 2 -2 -4 -2 -2 -3 -4 -7 -6 -6 -4 -2 -2 -7 -8 -1 3 3 2 4 5 4 4 5 4 4 4 4
1 1 1 -2 0 1 3 4 5 5 5 6 6 6 2 2 0 -2 -5 -6 -2 -3 -6 -8 -5 -4 -4 -4 -6 -7 -4 -4 -4 -1 2 3 4 4 4 4 3 3 3 3
2 3 4 1 -1 -3 -1 3 4 6 7 4 4 5 -1 -3 -4 -3 -4 -6 -10 -4 -3 -3 -3 -3 -5 -4 -4 -4 -2 -4 -7 -6 0 2 3 4 4 3 3 2 1 2
1 3 4 2 0 -1 -0 -1 3 4 4 6 7 6 -2 -4 -3 -2 -3 -7 -9 -9 -11 -11 -5 -2 -3 -2 -3 -3 -3 -6 -10 -11 -9 -7 -4 0 2 3 3 2 2 2
-1 1 3 4 2 0 -1 -4 -1 2 4 5 5 3 1 -1 -3 -3 -6 -7 -8 -8 -11 -11 -10 -4 -0 -1 -2 -2 -5 -10 -10 -11 -10 -7 -5 -2 1 2 2 2 1 2
-1 2 1 1 -1 -2 -2 -2 -3 -1 1 3 2 1 -2 0 -3 -7 -8 -9 -8 -9 -9 -9 -9 -6 -0 -1 -1 -2 -8 -8 -8 -8 -7 -6 -4 -2 -0 1 2 2 2 1
-1 2 0 1 -1 -1 -3 -2 -3 -3 -2 -1 -1 -2 -6 -8 -7 -7 -6 -5 -6 -7 -7 -7 -6 -1 0 0 -1 -2 -3 -3 -3 -4 -4 -3 -1 -1 -0 1 2 2 1 1
1 2 1 3 -0 -1 1 -2 -3 -2 -3 -3 -2 -5 -7 -7 -2 -1 -1 -2 -4 -7 -7 -2 0 1 -0 -0 -0 1 0 0 -0 -1 -0 0 1 2 1 1 0 1 0 0
2 1 3 4 2 3 -1 -6 -4 -4 -4 -4 -6 -8 -4 -2 1 -0 -1 -1 -1 -0 0 1 -0 -2 -4 -4 -3 -3 -1 -1 -2 -3 -2 1 1 1 0 -0 0 -0 -0 -1
0 2 2 2 2 -0 -5 -6 -8 -9 -9 -8 -8 -1 -2 -0 1 -0 -5 -6 -6 -6 -6 -7 -7 -8 -7 -4 -3 -3 -2 -3 -4 -5 -4 -0 0 -0 -1 -1 -2 -1 -1 -1
-3 -2 1 -0 1 0 -3 -11 -11 -11 -6 -1 -2 -2 -1 -2 -1 -1 -0 -1 -1 -0 -2 -4 -4 -4 -4 -4 -4 -4 -4 -5 -3 -1 -1 -0 -0 -1 -2 -2 -2 -2 -2 -3
-2 -0 1 -0 -2 -3 -6 -10 -11 -7 -8 -2 -3 -3 -2 -2 -2 -3 -1 -1 0 1 -3 -4 -3 -3 -3 -3 -4 -4 -4 -4 -1 -1 -1 -1 -2 -3 -3 -2 -3 -3 -3 -4
-2 -2 -1 -2 -3 -4 -9 -8 -8 -8 -8 -4 -3 -4 -5 -6 -5 -5 -5 -2 -0 0 -3 -3 -3 -2 -2 -2 -4 -5 -5 -3 -2 -1 -1 -2 -3 -3 -3 -4 -4 -4 -4 -5
-3 -4 -3 -5 -4 -8 -9 -9 -11 -12 -9 -7 -6 -4 -4 -5 -5 -6 -7 -5 -1 -0 -0 -1 -2 -2 -1 -2 -3 -4 -3 -2 -1 -2 -2 -3 -3 -4 -4 -4 -4 -5 -5 -6
-7 -7 -5 -6 -8 -9 -10 -9 -8 -8 -9 -7 -5 -5 -5 -9 -10 -7 -6 -6 -7 -7 -2 -1 -0 -1 -1 -2 -3 -4 -3 -2 -2 -2 -3 -3 -4 -4 -5 -5 -5 -6 -6 -7
-7 -7 -6 -5 -7 -9 -10 -9 -10 -9 -6 -5 -9 -10 -11 -10 -9 -9 -9 -9 -9 -9 -7 -1 -2 -1 -1 -2 -3 -3 -3 -2 -2 -2 -3 -4 -4 -4 -5 -6 -6 -7 -7 -7
-8 -6 -5 -5 -8 -9 -9 -9 -10 -10 -10 -10 -11 -12 -13 -13 -12 -8 -8 -10 -7 -9 -5 -1 -3 -2 -2 -2 -2 -3 -3 -3 -2 -2 -3 -4 -5 -5 -6 -7 -7 -8 -8 -8
Wind_Speed
7 4 10 10 9 3 2 3 4 5 11 4 8 5 9 10 6 10 10 11 11 10 11 13 22 34 39 38 37 36 35 32 28 27 28 28 27 25 24 24 22 21 20 20
2 12 9 6 5 5 6 7 8 7 10 5 7 10 8 4 1 3 5 8 10 11 10 11 19 29 39 39 41 36 38 33 30 28 25 24 24 25 24 23 22 19 18 19
7 5 6 9 6 6 9 6 7 8 6 4 5 6 5 3 6 11 13 14 14 13 14 11 16 26 35 39 39 39 39 34 25 18 15 17 21 23 24 24 20 17 18 19
8 15 6 5 6 10 5 9 13 11 3 2 2 5 3 1 6 6 16 20 20 16 13 5 15 25 31 34 35 38 37 28 18 13 9 13 19 22 22 21 19 18 17 18
8 4 7 9 11 8 8 9 8 5 2 3 3 1 5 5 4 4 9 19 22 21 16 10 1 15 21 27 30 30 24 16 11 10 12 13 14 15 17 19 19 19 19 19
7 2 1 5 3 6 3 3 5 4 2 2 6 7 4 3 5 2 2 16 21 24 22 16 10 3 7 14 15 17 13 11 10 11 10 11 12 11 13 14 17 19 19 23
0 13 4 5 2 1 3 5 1 3 1 5 3 3 4 4 4 5 5 12 17 19 21 23 20 13 10 7 7 7 8 7 7 9 9 11 13 14 15 14 16 19 20 23
10 5 12 6 13 6 6 7 5 6 4 3 5 4 4 5 7 8 8 10 13 14 15 17 16 16 14 12 10 8 2 4 9 13 14 14 16 17 18 17 17 20 22 21
5 6 2 6 6 14 5 5 6 6 3 3 3 1 4 4 4 7 7 8 10 11 12 12 11 11 11 11 9 7 5 12 18 18 17 18 19 19 19 19 20 21 23 22
5 1 1 3 5 4 8 7 3 3 4 5 4 4 5 8 6 6 7 11 11 10 9 3 1 3 5 5 6 2 4 6 9 12 16 19 21 21 21 22 23 23 23 24
5 3 4 2 4 8 4 4 3 5 4 5 3 5 4 8 6 3 4 5 13 11 6 4 5 6 7 8 6 6 8 6 7 11 15 18 20 22 24 24 24 21 22 25
11 4 4 5 5 3 4 8 8 5 6 2 3 4 4 7 7 12 13 12 4 8 11 12 10 12 12 12 11 9 7 5 10 12 12 16 19 21 24 25 25 23 21 23
9 5 3 5 4 3 3 2 4 5 3 6 5 4 3 5 7 4 7 10 8 16 24 21 20 20 21 18 14 9 9 11 14 14 12 12 13 17 21 24 24 26 27 27
12 4 7 10 3 5 5 4 4 5 3 6 4 2 7 3 3 3 10 13 18 26 29 30 24 23 23 19 15 14 14 12 13 12 14 14 15 16 17 20 23 25 25 28
5 5 3 3 3 2 4 9 7 4 7 6 5 6 5 6 3 10 18 20 22 27 25 25 26 23 24 19 16 15 13 12 14 14 15 15 17 18 18 21 26 30 29 29
0 4 4 3 3 5 1 6 6 6 5 5 6 11 6 13 6 11 12 10 15 19 19 18 20 21 20 15 13 14 14 14 15 15 17 18 20 19 18 22 28 30 31 28
4 6 4 4 4 6 7 10 10 6 6 8 8 10 5 4 5 6 7 7 11 13 13 12 16 17 15 15 17 16 17 18 19 20 21 23 20 18 18 19 21 25 26 26
3 4 3 3 5 4 5 4 8 9 7 7 3 3 4 3 5 4 2 2 2 4 6 9 9 10 12 14 17 20 20 20 20 21 22 19 18 16 17 16 17 20 24 23
5 4 4 5 4 6 5 6 6 7 7 7 6 7 5 4 9 3 6 4 2 4 7 9 11 14 17 17 18 18 18 19 19 17 15 12 12 14 10 11 14 22 20 22
5 6 4 3 5 9 5 3 13 7 5 8 11 7 7 8 2 4 7 6 9 12 14 15 17 17 15 15 16 18 20 19 17 13 10 10 9 10 9 8 10 18 18 17
4 2 6 4 2 6 6 7 8 6 6 16 17 16 13 5 7 4 7 9 11 13 13 15 17 16 15 14 15 15 15 15 14 13 11 10 9 7 6 6 7 12 14 16
7 7 4 3 3 9 11 7 9 7 9 18 16 16 15 10 9 8 7 9 12 13 13 14 16 16 15 14 16 16 16 14 13 12 12 10 8 5 3 4 7 11 12 13
4 6 6 8 7 4 5 3 11 12 14 15 21 15 13 12 13 9 6 8 11 16 19 19 18 18 16 15 16 17 16 13 11 10 11 10 8 4 4 7 9 11 11 12
2 4 4 3 2 4 10 8 7 8 10 10 13 16 16 11 9 9 9 11 12 15 19 23 24 20 18 17 17 17 16 12 10 9 10 9 6 6 8 8 9 9 11 13
4 4 3 1 3 5 12 10 8 7 7 10 10 8 7 9 12 14 14 16 17 18 21 23 22 20 18 17 16 16 15 11 8 9 10 9 7 8 8 8 8 7 9 10
6 5 3 5 9 7 8 6 4 7 7 12 18 21 20 18 20 20 19 20 20 20 20 22 18 17 17 17 16 14 11 7 8 10 11 9 9 10 9 9 8 8 6 7
Wind_Direction
181 164 214 187 193 207 347 302 300 266 278 310 279 266 279 310 19 9 3 353 340 329 309 269 256 242 231 229 225 218 219 213 216 219 220 223 228 235 243 249 252 255 258 257
108 237 223 185 208 230 267 280 281 281 266 175 271 292 280 287 24 328 341 350 328 317 306 275 243 234 230 226 223 220 218 213 213 220 230 236 241 245 248 250 250 250 254 258
188 241 187 177 200 214 237 213 248 226 284 297 323 295 261 47 52 21 16 4 5 343 323 296 234 227 223 218 220 219 216 213 214 224 236 252 252 251 254 257 257 258 260 263
227 243 243 180 223 192 242 209 239 250 212 235 49 283 312 312 43 8 19 18 13 17 2 290 206 203 207 209 211 214 209 204 208 226 247 259 269 273 279 282 281 279 280 282
228 218 202 207 223 174 228 248 212 215 181 117 249 300 262 126 38 1 350 35 40 39 39 43 192 204 203 205 203 203 194 198 223 254 253 257 268 277 285 284 286 289 293 294
214 248 247 202 197 206 197 119 47 43 95 303 223 178 271 289 168 212 2 62 60 55 55 62 74 88 213 209 204 195 200 228 246 254 274 280 286 295 298 300 301 301 304 305
175 253 235 187 245 226 103 96 341 334 330 229 303 143 224 184 151 167 145 86 81 74 68 71 71 82 102 129 168 209 226 238 276 290 300 303 301 297 299 303 296 292 300 309
196 278 191 187 196 177 181 161 157 212 214 259 301 233 215 169 116 134 118 110 100 94 90 89 91 93 96 103 112 106 96 334 321 309 302 299 291 289 289 287 290 293 297 303
166 251 222 183 156 169 176 192 177 110 33 39 235 47 10 117 134 121 126 126 111 111 106 98 106 109 111 127 134 148 222 267 276 286 288 288 284 287 291 291 287 294 300 290
209 267 254 172 112 193 180 156 85 347 162 223 250 223 204 180 185 170 141 167 155 148 138 58 92 154 152 163 161 199 259 254 268 275 280 282 279 287 288 282 287 290 295 285
161 129 291 138 197 165 124 179 78 129 155 181 188 252 234 145 166 131 6 81 197 199 220 269 229 207 194 191 220 205 197 238 287 266 272 277 281 285 280 281 288 290 287 279
196 158 205 225 305 232 161 193 159 161 208 244 155 281 94 139 116 55 3 345 20 245 273 274 241 218 224 231 210 196 200 274 297 292 273 275 278 280 280 288 290 282 287 276
168 200 114 340 339 321 168 127 114 103 56 183 160 221 151 134 95 69 324 314 319 320 318 306 266 241 228 218 206 215 243 263 269 271 281 291 296 292 292 293 292 297 288 279
140 116 188 214 187 140 157 139 127 126 139 156 208 201 242 292 244 307 323 308 304 294 286 289 272 249 226 215 221 238 247 251 254 260 270 280 285 286 287 287 283 283 283 282
123 134 100 33 71 85 126 156 150 127 148 156 179 244 223 237 203 272 281 273 273 278 284 279 263 244 217 214 226 237 249 247 247 255 269 276 284 292 287 288 285 278 278 270
248 137 114 35 13 51 193 174 165 169 178 195 200 250 253 278 261 261 266 269 267 274 273 265 251 218 210 222 237 254 251 254 253 255 268 277 286 284 278 282 287 286 274 262
120 131 129 169 97 40 305 186 185 186 189 161 193 223 183 250 182 247 281 283 269 264 262 230 201 206 217 233 244 252 254 261 261 266 271 274 280 278 280 283 282 275 268 256
96 89 68 133 92 198 238 169 181 188 184 200 226 268 136 166 158 151 144 158 159 165 175 180 195 218 240 255 261 263 262 266 272 279 280 278 285 291 291 288 278 271 255 255
154 138 132 150 197 320 281 219 185 169 219 196 188 173 152 153 150 213 170 170 197 229 232 230 236 245 250 262 268 268 270 278 286 286 288 287 289 297 287 285 279 261 252 264
80 104 128 156 168 202 238 194 138 91 266 186 165 157 149 137 137 259 225 236 258 275 279 275 267 262 272 286 289 287 287 290 291 295 296 290 295 289 282 278 281 261 262 248
100 39 169 160 193 283 215 163 138 164 229 182 178 174 165 164 190 250 272 259 265 265 264 267 269 270 276 288 291 294 293 298 293 293 291 289 286 275 266 274 267 257 250 248
153 154 172 127 127 254 174 186 207 207 172 178 189 191 198 199 197 225 252 265 268 261 268 272 270 272 274 286 297 296 300 299 298 301 305 296 288 264 255 253 248 252 251 248
183 177 174 176 202 223 219 255 213 224 184 206 211 209 203 206 216 229 244 258 268 269 270 280 279 269 268 281 294 297 299 291 291 293 299 308 294 229 219 238 247 254 248 240
225 155 177 116 182 212 227 226 196 208 229 223 196 199 196 215 238 252 257 270 279 284 276 276 275 261 257 268 286 294 293 288 286 285 295 293 264 226 229 241 251 249 240 224
193 125 150 297 287 328 262 238 237 242 209 189 187 198 227 248 252 257 266 278 285 289 285 274 260 256 261 271 285 288 291 288 285 286 272 254 240 236 243 253 257 243 235 236
190 167 150 228 198 223 256 153 282 215 226 264 277 277 275 267 255 252 255 270 275 286 282 258 249 250 263 274 282 284 287 302 295 276 269 257 242 234 239 239 231 224 232 230
Height
1509 1516 1516 1512 1513 1513 1516 1518 1520 1515 1505 1508 1503 1502 1492 1484 1482 1479 1475 1473 1470 1467 1466 1465 1466 1470 1475 1481 1485 1489 1493 1496 1501 1503 1504 1507 1509 1512 1514 1515 1516 1517 1519 1519
1511 1509 1504 1507 1510 1515 1518 1521 1519 1510 1502 1505 1502 1498 1489 1483 1482 1481 1476 1471 1467 1464 1462 1461 1461 1463 1467 1475 1482 1488 1492 1497 1500 1504 1507 1510 1512 1512 1513 1514 1515 1515 1516 1517
1508 1500 1494 1502 1507 1515 1514 1517 1513 1511 1502 1500 1499 1500 1490 1487 1486 1484 1482 1477 1471 1464 1459 1458 1458 1459 1464 1468 1476 1483 1489 1495 1501 1508 1510 1512 1512 1512 1511 1512 1513 1515 1514 1514
1501 1494 1496 1501 1505 1508 1515 1500 1501 1503 1505 1515 1499 1518 1494 1488 1492 1488 1484 1480 1475 1467 1463 1458 1457 1459 1463 1469 1475 1481 1487 1497 1503 1506 1506 1509 1511 1512 1512 1512 1513 1513 1513 1514
1494 1489 1492 1497 1496 1498 1502 1493 1497 1496 1501 1506 1504 1514 1497 1490 1493 1490 1487 1482 1477 1473 1470 1467 1466 1465 1468 1471 1474 1482 1492 1500 1504 1505 1506 1507 1508 1509 1510 1511 1510 1510 1512 1512
1487 1486 1485 1488 1488 1490 1488 1493 1499 1503 1507 1520 1502 1505 1506 1498 1491 1490 1489 1485 1481 1478 1474 1472 1471 1474 1477 1480 1484 1490 1496 1499 1501 1506 1507 1506 1508 1508 1508 1508 1509 1508 1508 1509
1486 1484 1483 1485 1490 1487 1491 1500 1522 1523 1524 1520 1498 1506 1497 1491 1490 1489 1489 1488 1485 1483 1481 1478 1479 1479 1482 1484 1488 1494 1498 1500 1502 1503 1502 1504 1506 1506 1506 1504 1505 1506 1505 1505
1491 1494 1479 1476 1481 1488 1494 1497 1518 1521 1526 1517 1503 1504 1494 1486 1487 1487 1488 1489 1488 1487 1487 1484 1484 1483 1485 1488 1490 1491 1497 1500 1502 1502 1502 1503 1502 1502 1502 1501 1500 1501 1501 1501
1488 1484 1465 1465 1469 1477 1490 1497 1491 1512 1521 1535 1510 1497 1491 1490 1490 1488 1487 1488 1490 1490 1490 1489 1488 1487 1487 1489 1490 1490 1491 1493 1494 1496 1498 1499 1498 1496 1496 1496 1497 1497 1498 1496
1471 1479 1465 1464 1465 1471 1474 1482 1505 1516 1516 1518 1509 1500 1496 1492 1493 1491 1489 1487 1488 1490 1489 1489 1488 1488 1488 1489 1490 1490 1490 1492 1492 1493 1493 1494 1494 1492 1492 1492 1492 1493 1493 1493
1466 1473 1473 1466 1467 1472 1478 1484 1492 1498 1508 1510 1510 1502 1485 1485 1490 1491 1490 1488 1486 1487 1488 1489 1489 1488 1488 1488 1489 1488 1488 1489 1489 1487 1489 1491 1490 1489 1489 1488 1488 1488 1489 1489
1455 1470 1479 1472 1467 1463 1465 1470 1479 1496 1498 1511 1510 1498 1483 1485 1487 1490 1493 1490 1488 1488 1490 1489 1489 1488 1487 1487 1486 1486 1486 1486 1485 1484 1484 1486 1486 1485 1484 1483 1484 1484 1483 1483
1455 1470 1485 1481 1474 1468 1466 1470 1474 1482 1491 1495 1503 1497 1485 1485 1483 1486 1492 1488 1486 1487 1489 1489 1487 1485 1483 1483 1484 1484 1485 1484 1483 1482 1481 1481 1480 1480 1479 1479 1479 1479 1479 1479
1444 1460 1461 1464 1464 1468 1474 1472 1474 1479 1499 1493 1493 1492 1485 1485 1485 1489 1489 1486 1484 1486 1486 1484 1480 1479 1480 1480 1480 1481 1482 1481 1481 1479 1478 1477 1476 1475 1475 1475 1475 1475 1474 1474
1447 1462 1469 1470 1467 1466 1468 1473 1474 1476 1481 1488 1489 1486 1481 1484 1485 1487 1484 1483 1479 1478 1477 1477 1476 1472 1474 1476 1477 1478 1478 1478 1477 1475 1474 1473 1471 1470 1470 1470 1470 1469 1468 1468
1447 1468 1470 1475 1470 1470 1471 1474 1473 1474 1476 1477 1481 1479 1473 1475 1478 1478 1477 1475 1473 1472 1471 1470 1469 1469 1472 1474 1476 1476 1475 1474 1472 1471 1470 1469 1468 1467 1466 1466 1465 1463 1463 1463
1446 1456 1464 1474 1473 1474 1477 1468 1470 1471 1469 1470 1480 1472 1471 1471 1473 1472 1471 1470 1469 1467 1465 1464 1466 1468 1470 1471 1471 1471 1471 1470 1468 1467 1466 1464 1463 1461 1460 1460 1460 1460 1460 1461
1448 1452 1463 1472 1478 1484 1456 1456 1458 1459 1460 1463 1465 1465 1465 1466 1467 1467 1467 1468 1468 1467 1466 1465 1467 1468 1468 1468 1467 1467 1466 1464 1462 1460 1459 1458 1457 1455 1455 1455 1456 1456 1457 1459
1445 1459 1469 1471 1475 1467 1454 1456 1457 1458 1462 1459 1463 1465 1465 1464 1466 1467 1465 1466 1467 1468 1468 1467 1466 1466 1464 1464 1464 1463 1461 1459 1458 1455 1453 1453 1452 1451 1450 1451 1453 1454 1455 1455
1444 1444 1456 1475 1477 1480 1454 1450 1448 1453 1469 1456 1457 1460 1462 1464 1473 1468 1465 1462 1465 1466 1466 1466 1465 1464 1463 1462 1461 1460 1458 1456 1455 1452 1449 1448 1448 1448 1448 1447 1449 1453 1454 1455
1446 1455 1457 1468 1472 1461 1449 1447 1450 1463 1458 1450 1452 1454 1457 1460 1460 1463 1463 1462 1461 1462 1463 1463 1462 1460 1460 1459 1457 1456 1454 1453 1453 1450 1446 1445 1445 1446 1446 1445 1447 1451 1453 1454
1438 1451 1461 1468 1480 1470 1441 1447 1451 1446 1443 1447 1449 1451 1452 1452 1453 1455 1457 1458 1459 1458 1459 1459 1459 1458 1456 1455 1454 1453 1451 1450 1450 1449 1446 1444 1443 1444 1444 1445 1448 1451 1452 1452
1438 1432 1441 1442 1444 1436 1437 1439 1439 1441 1441 1443 1446 1449 1450 1450 1452 1451 1451 1453 1454 1454 1454 1454 1453 1452 1451 1451 1450 1448 1447 1447 1446 1446 1445 1443 1443 1441 1442 1445 1447 1449 1450 1452
1425 1427 1434 1434 1431 1432 1435 1437 1439 1439 1439 1440 1443 1445 1445 1447 1447 1448 1445 1448 1450 1450 1449 1449 1448 1448 1447 1445 1445 1444 1443 1442 1443 1442 1442 1442 1441 1440 1443 1444 1446 1447 1449 1451
1427 1427 1429 1432 1430 1433 1433 1435 1437 1437 1437 1439 1442 1442 1443 1443 1443 1443 1442 1443 1444 1444 1443 1442 1441 1442 1442 1441 1440 1439 1438 1438 1438 1438 1439 1440 1440 1440 1442 1445 1447 1448 1449 1451
1423 1426 1431 1432 1427 1429 1430 1432 1435 1436 1438 1439 1440 1438 1438 1436 1437 1438 1437 1438 1438 1438 1437 1436 1436 1437 1437 1437 1436 1435 1435 1434 1435 1436 1437 1439 1439 1440 1441 1444 1447 1449 1449 1450